Home   Weather   Bamako   Past weeks

Flag for Mali Past Weather in Bamako, Mali — Yesterday and Last 2 Weeks

Now
72 °F

Thunderstorms. Passing clouds.


Feels Like: 65 °F
Forecast: N/A
Wind: 3 mph from North

Location: Bamako / Senou

Current Time: Sep 25, 2016 at 8:58:33 PM

Latest Report: Sep 25, 2016 at 8:30 PM


Visibility: N/A

Pressure: 29.89 "Hg

Humidity: 100%

Dew Point: 72 °F

Location of BamakoLocation

Past Weather in Bamako — Graph

°F

Bamako Temperature Yesterday

Maximum temperature yesterday: 91 °F (at 2:00 PM)
Minimum temperature yesterday: 72 °F (at 12:00 AM)
Average temperature yesterday: 80 °F

High & Low Weather Summary for the Past Weeks

 TemperatureHumidityPressure
High93 °F (Sep 20, 1:30 PM)100% (Sep 11, 12:30 AM)30.07 "Hg (Sep 11, 12:30 AM)
Low68 °F (Sep 13, 3:00 PM)44% (Sep 20, 1:30 PM)29.83 "Hg (Sep 25, 2:30 PM)
Average79 °F87%29.97 "Hg
* Reported Sep 10 8:00 PM — Sep 25 8:00 PM, Bamako, Weather by CustomWeather, © 2016

Note: Actual official high and low records may vary slightly from our data, if they occured in-between our weather recording intervals... More about our weather records

Advertising

Bamako Weather History for the Previous 24 Hours

Scroll right to see more
 ConditionsComfort  
Time TempWeatherWind HumidityBarometerVisibility
8:00 PM
Sun, Sep 25
72 °FThunderstorms. Partly cloudy.7 mph100%29.92 "HgN/A
7:30 PM72 °FThunderstorms. Partly cloudy.10 mph100%29.89 "Hg4 mi
7:00 PM73 °FStrong thunderstorms. Partly cloudy.24 mph94%29.92 "Hg5 mi
6:30 PM84 °FPassing clouds.13 mph79%29.89 "HgN/A
6:00 PM86 °FPassing clouds.9 mph75%29.83 "HgN/A
5:30 PM88 °FPassing clouds.9 mph70%29.83 "HgN/A
5:00 PM90 °FPassing clouds.8 mph67%29.83 "HgN/A
4:30 PM90 °FPassing clouds.8 mph67%29.83 "HgN/A
4:00 PM91 °FPassing clouds.7 mph63%29.83 "HgN/A
3:30 PM90 °FPassing clouds.5 mph63%29.83 "HgN/A
3:00 PM90 °FPassing clouds.5 mph67%29.83 "HgN/A
2:30 PM90 °FPassing clouds.6 mph63%29.83 "HgN/A
2:00 PM88 °FPassing clouds.8 mph66%29.86 "HgN/A
1:30 PM90 °FPassing clouds.8 mph63%29.89 "HgN/A
1:00 PM90 °FPassing clouds.7 mph63%29.89 "HgN/A
12:00 PM86 °FPassing clouds.9 mph70%29.92 "HgN/A
11:30 AM86 °FPassing clouds.9 mph70%29.92 "HgN/A
11:00 AM84 °FPassing clouds.12 mph74%29.95 "HgN/A
10:30 AM82 °FPassing clouds.12 mph74%29.98 "HgN/A
10:00 AM82 °FPassing clouds.13 mph74%29.98 "HgN/A
9:30 AM81 °FPassing clouds.12 mph84%29.98 "HgN/A
9:00 AM81 °FPassing clouds.9 mph84%29.98 "HgN/A
8:30 AM79 °FPassing clouds.8 mph100%29.95 "HgN/A
8:00 AM79 °FPassing clouds.6 mph100%29.95 "HgN/A
7:30 AM77 °FPassing clouds.5 mph100%29.92 "HgN/A
7:00 AM77 °FPassing clouds.5 mph100%29.92 "HgN/A
6:30 AM77 °FThunderstorms. Passing clouds.3 mph100%29.92 "HgN/A
6:00 AM77 °FPassing clouds.3 mph100%29.92 "HgN/A
5:30 AM77 °FClear.2 mph100%29.92 "Hg10 mi
5:00 AM77 °FClear.2 mph100%29.92 "Hg10 mi
4:30 AM77 °FClear.3 mph100%29.89 "Hg10 mi
4:00 AM79 °FClear.2 mph100%29.89 "Hg10 mi
3:30 AM79 °FClear.2 mph100%29.92 "Hg10 mi
3:00 AM79 °FClear.1 mph100%29.92 "Hg10 mi
2:30 AM79 °FClear.3 mph100%29.92 "Hg10 mi
2:00 AM79 °FClear.5 mph100%29.92 "Hg10 mi
1:30 AM79 °FClear.3 mph100%29.95 "Hg10 mi
1:00 AM79 °FClear.3 mph100%29.95 "Hg10 mi
12:30 AM81 °FClear.3 mph94%29.95 "Hg10 mi
12:00 AM77 °FClear.No wind94%29.95 "Hg10 mi
11:30 PM
Sat, Sep 24
79 °FClear.2 mph94%29.98 "Hg10 mi
11:00 PM79 °FClear.3 mph100%29.98 "Hg10 mi
10:30 PM77 °FClear.2 mph100%29.98 "Hg10 mi
10:00 PM79 °FClear.2 mph100%29.98 "Hg10 mi
9:30 PM81 °FClear.2 mph94%29.95 "Hg10 mi
9:00 PM81 °FClear.1 mph89%29.95 "Hg10 mi
8:30 PM79 °FClear.2 mph94%29.95 "Hg10 mi
8:00 PM82 °FClear.1 mph84%29.92 "Hg10 mi
Weather by CustomWeather, © 2016

See weather overviewHow to use our weather pages